Location: Berlin
(42.3812°N, 71.6370°W)
Time: 12:26:14
(UTC+00:00)

Cosmos 1943 - Pass Details

Date: 25 February 2026
Orbit: 830 x 850 km, 71.0° (Epoch: 8 March)

Event Time Altitude Azimuth Distance (km) Brightness Sun altitude
Rises 23:24:45 0° 332° (NNW) 3,421 6.7 -10.6°
Reaches altitude 10° 23:27:13 10° 329° (NNW) 2,481 6.0 -11.0°
Maximum altitude 23:32:50 63° 251° (WSW) 944 3.8 -12.1°
Drops below altitude 10° 23:38:24 10° 171° (S) 2,454 5.5 -13.1°
Sets 23:40:50 0° 168° (SSE) 3,382 6.2 -13.5°
